Year,Month,Day,Hour,Minute,Value (Times are PST for temperature in C)
2009,08,22,07,54,13.00
2009,08,22,07,55,13.00
2009,08,22,07,56,13.10
2009,08,22,07,57,13.10
2009,08,22,07,58,13.20
2009,08,22,07,59,13.30
2009,08,22,08,00,13.30
2009,08,22,08,01,13.30
2009,08,22,08,02,13.40
2009,08,22,08,03,13.50
2009,08,22,08,04,13.50
2009,08,22,08,05,13.60
2009,08,22,08,06,13.60
2009,08,22,08,07,13.70
2009,08,22,08,08,13.70
2009,08,22,08,09,13.70
2009,08,22,08,10,13.70
2009,08,22,08,11,13.80
2009,08,22,08,12,13.80
2009,08,22,08,13,13.80
2009,08,22,08,14,13.90
2009,08,22,08,15,13.90
2009,08,22,08,16,13.90
2009,08,22,08,17,14.00
2009,08,22,08,18,14.00
2009,08,22,08,19,14.00
2009,08,22,08,20,14.10
2009,08,22,08,21,14.10
2009,08,22,08,22,14.10
2009,08,22,08,23,14.10
2009,08,22,08,24,14.20
2009,08,22,08,25,14.20
2009,08,22,08,26,14.20
2009,08,22,08,27,14.20
2009,08,22,08,28,14.30
2009,08,22,08,29,14.30
2009,08,22,08,30,14.30
2009,08,22,08,31,14.20
2009,08,22,08,32,14.20
2009,08,22,08,33,14.20
2009,08,22,08,34,14.30
2009,08,22,08,35,14.30
2009,08,22,08,36,14.40
2009,08,22,08,37,14.40
2009,08,22,08,38,14.40
2009,08,22,08,39,14.50
2009,08,22,08,40,14.50
2009,08,22,08,41,14.50
2009,08,22,08,42,14.50
2009,08,22,08,43,14.60
2009,08,22,08,44,14.60
2009,08,22,08,45,14.60
2009,08,22,08,46,14.70
2009,08,22,08,47,14.70
2009,08,22,08,48,14.80
2009,08,22,08,49,14.80
2009,08,22,08,50,14.80
2009,08,22,08,51,14.80
2009,08,22,08,52,14.80
2009,08,22,08,53,14.80
2009,08,22,08,54,14.80
2009,08,22,08,55,14.80
2009,08,22,08,56,14.80
2009,08,22,08,57,14.90
2009,08,22,08,58,15.00
2009,08,22,08,59,15.00
2009,08,22,09,00,15.10
2009,08,22,09,01,15.20
2009,08,22,09,02,15.30
2009,08,22,09,03,15.30
2009,08,22,09,04,15.40
2009,08,22,09,05,15.40
2009,08,22,09,06,15.40
2009,08,22,09,07,15.40
2009,08,22,09,08,15.40
2009,08,22,09,09,15.40
2009,08,22,09,10,15.40
2009,08,22,09,11,15.40
2009,08,22,09,12,15.40
2009,08,22,09,13,15.50
2009,08,22,09,14,15.50
2009,08,22,09,15,15.50
2009,08,22,09,16,15.50
2009,08,22,09,17,15.50
2009,08,22,09,18,15.50
2009,08,22,09,19,15.50
2009,08,22,09,20,15.50
2009,08,22,09,21,15.50
2009,08,22,09,22,15.50
2009,08,22,09,23,15.40
2009,08,22,09,24,15.40
2009,08,22,09,25,15.40
2009,08,22,09,26,15.40
2009,08,22,09,27,15.50
2009,08,22,09,28,15.60
2009,08,22,09,29,15.60
2009,08,22,09,30,15.70
2009,08,22,09,31,15.80
2009,08,22,09,32,15.80
2009,08,22,09,33,15.80
2009,08,22,09,34,15.80
2009,08,22,09,35,15.80
2009,08,22,09,36,15.90
2009,08,22,09,37,15.90
2009,08,22,09,38,16.00
2009,08,22,09,39,16.10
2009,08,22,09,40,16.10
2009,08,22,09,41,16.10
2009,08,22,09,42,16.10
2009,08,22,09,43,16.10
2009,08,22,09,44,16.10
2009,08,22,09,45,16.10
2009,08,22,09,46,16.10
2009,08,22,09,47,16.10
2009,08,22,09,48,16.10
2009,08,22,09,49,16.10
2009,08,22,09,50,16.10
2009,08,22,09,51,16.10
2009,08,22,09,52,16.10
2009,08,22,09,53,16.20
2009,08,22,09,54,16.20
2009,08,22,09,55,16.20
2009,08,22,09,56,16.30
2009,08,22,09,57,16.30
2009,08,22,09,58,16.40
2009,08,22,09,59,16.50
2009,08,22,10,00,16.60
2009,08,22,10,01,16.70
2009,08,22,10,02,16.70
2009,08,22,10,03,16.80
2009,08,22,10,04,16.80
2009,08,22,10,05,16.90
2009,08,22,10,06,16.90
2009,08,22,10,07,17.00
2009,08,22,10,08,16.90
2009,08,22,10,09,17.00
2009,08,22,10,10,17.00
2009,08,22,10,11,17.00
2009,08,22,10,12,17.10
2009,08,22,10,13,17.10
2009,08,22,10,14,17.10
2009,08,22,10,15,17.10
2009,08,22,10,16,17.20
2009,08,22,10,17,17.20
2009,08,22,10,18,17.20
2009,08,22,10,19,17.30
2009,08,22,10,20,17.30
2009,08,22,10,21,17.30
2009,08,22,10,22,17.30
2009,08,22,10,23,17.30
2009,08,22,10,24,17.30
2009,08,22,10,25,17.40
2009,08,22,10,26,17.50
2009,08,22,10,27,17.60
2009,08,22,10,28,17.70
2009,08,22,10,29,17.70
2009,08,22,10,30,17.80
2009,08,22,10,31,17.90
2009,08,22,10,32,17.90
2009,08,22,10,33,17.90
2009,08,22,10,34,17.90
2009,08,22,10,35,17.90
2009,08,22,10,36,17.90
2009,08,22,10,37,17.90
2009,08,22,10,38,17.90
2009,08,22,10,39,17.80
2009,08,22,10,40,17.80
2009,08,22,10,41,17.80
2009,08,22,10,42,17.80
2009,08,22,10,43,17.80
2009,08,22,10,44,17.90
2009,08,22,10,45,17.90
2009,08,22,10,46,17.90
2009,08,22,10,47,17.90
2009,08,22,10,48,17.90
2009,08,22,10,49,17.90
2009,08,22,10,50,17.90
2009,08,22,10,51,17.90
2009,08,22,10,52,18.00
2009,08,22,10,53,18.10
2009,08,22,10,54,18.30
2009,08,22,10,55,18.40
2009,08,22,10,56,18.40
2009,08,22,10,57,18.30
2009,08,22,10,58,18.30
2009,08,22,10,59,18.30
2009,08,22,11,00,18.30
2009,08,22,11,01,18.30
2009,08,22,11,02,18.30
2009,08,22,11,03,18.40
2009,08,22,11,04,18.50
2009,08,22,11,05,18.50
2009,08,22,11,06,18.60
2009,08,22,11,07,18.70
2009,08,22,11,08,18.60
2009,08,22,11,09,18.50
2009,08,22,11,10,18.50
2009,08,22,11,11,18.50
2009,08,22,11,12,18.50
2009,08,22,11,13,18.60
2009,08,22,11,14,18.60
2009,08,22,11,15,18.60
2009,08,22,11,16,18.50
2009,08,22,11,17,18.40
2009,08,22,11,18,18.40
2009,08,22,11,19,18.50
2009,08,22,11,20,18.60
2009,08,22,11,21,18.70
2009,08,22,11,22,18.70
2009,08,22,11,23,18.80
2009,08,22,11,24,18.90
2009,08,22,11,25,18.90
2009,08,22,11,26,18.90
2009,08,22,11,27,18.90
2009,08,22,11,28,18.80
2009,08,22,11,29,18.80
2009,08,22,11,30,18.80
2009,08,22,11,31,18.70
2009,08,22,11,32,18.90
2009,08,22,11,33,18.90
2009,08,22,11,34,18.90
2009,08,22,11,35,18.90
2009,08,22,11,36,18.90
2009,08,22,11,37,18.90
2009,08,22,11,38,18.90
2009,08,22,11,39,19.10
2009,08,22,11,40,19.10
2009,08,22,11,41,19.00
2009,08,22,11,42,18.90
2009,08,22,11,43,19.00
2009,08,22,11,44,19.10
2009,08,22,11,45,19.10
2009,08,22,11,46,19.10
2009,08,22,11,47,19.10
2009,08,22,11,48,19.10
2009,08,22,11,49,19.00
2009,08,22,11,50,18.80
2009,08,22,11,51,18.60
2009,08,22,11,52,18.60
2009,08,22,11,53,18.60
2009,08,22,11,54,18.50
2009,08,22,11,55,18.60
2009,08,22,11,56,18.60
2009,08,22,11,57,18.60
2009,08,22,11,58,18.70
2009,08,22,11,59,18.80
2009,08,22,12,00,18.90
2009,08,22,12,01,18.90
2009,08,22,12,02,19.10
2009,08,22,12,03,19.10
2009,08,22,12,04,19.20
2009,08,22,12,05,19.20
2009,08,22,12,06,19.20
2009,08,22,12,07,19.20
2009,08,22,12,08,19.20
2009,08,22,12,09,19.20
2009,08,22,12,10,19.30
2009,08,22,12,11,19.40
2009,08,22,12,12,19.30
2009,08,22,12,13,19.20
2009,08,22,12,14,19.20
2009,08,22,12,15,19.10
2009,08,22,12,16,19.10
2009,08,22,12,17,18.90
2009,08,22,12,18,18.90
2009,08,22,12,19,18.90
2009,08,22,12,20,19.00
2009,08,22,12,21,19.10
2009,08,22,12,22,19.10
2009,08,22,12,23,19.10
2009,08,22,12,24,19.10
2009,08,22,12,25,19.10
2009,08,22,12,26,19.10
2009,08,22,12,27,19.20
2009,08,22,12,28,19.20
2009,08,22,12,29,19.20
2009,08,22,12,30,19.30
2009,08,22,12,31,19.30
2009,08,22,12,32,19.40
2009,08,22,12,33,19.50
2009,08,22,12,34,19.60
2009,08,22,12,35,19.70
2009,08,22,12,36,19.50
2009,08,22,12,37,19.30
2009,08,22,12,38,19.20
2009,08,22,12,39,19.20
2009,08,22,12,40,19.30
2009,08,22,12,41,19.40
2009,08,22,12,42,19.40
2009,08,22,12,43,19.30
2009,08,22,12,44,19.30
2009,08,22,12,45,19.30
2009,08,22,12,46,19.30
2009,08,22,12,47,19.40
2009,08,22,12,48,19.40
2009,08,22,12,49,19.50
2009,08,22,12,50,19.60
2009,08,22,12,51,19.80
2009,08,22,12,52,19.70
2009,08,22,12,53,19.60
2009,08,22,12,54,19.50
2009,08,22,12,55,19.60
2009,08,22,12,56,19.70
2009,08,22,12,57,19.70
2009,08,22,12,58,19.80
2009,08,22,12,59,19.60
2009,08,22,13,00,19.60
2009,08,22,13,01,19.70
2009,08,22,13,02,19.80
2009,08,22,13,03,19.60
2009,08,22,13,04,19.40
2009,08,22,13,05,19.20
2009,08,22,13,06,19.10
2009,08,22,13,07,19.10
2009,08,22,13,08,19.10
2009,08,22,13,09,19.30
2009,08,22,13,10,19.40
2009,08,22,13,11,19.50
2009,08,22,13,12,19.50
2009,08,22,13,13,19.60
2009,08,22,13,14,19.70
2009,08,22,13,15,19.90
2009,08,22,13,16,19.90
2009,08,22,13,17,19.90
2009,08,22,13,18,19.80
2009,08,22,13,19,19.80
2009,08,22,13,20,19.80
2009,08,22,13,21,19.80
2009,08,22,13,22,19.80
2009,08,22,13,23,19.90
2009,08,22,13,24,19.90
2009,08,22,13,25,19.90
2009,08,22,13,26,20.00
2009,08,22,13,27,20.10
2009,08,22,13,28,20.20
2009,08,22,13,29,20.20
2009,08,22,13,30,20.20
2009,08,22,13,31,20.20
2009,08,22,13,32,20.20
2009,08,22,13,33,20.20
2009,08,22,13,34,20.20
2009,08,22,13,35,20.20
2009,08,22,13,36,20.30
2009,08,22,13,37,20.40
2009,08,22,13,38,20.40
2009,08,22,13,39,20.50
2009,08,22,13,40,20.50
2009,08,22,13,41,20.60
2009,08,22,13,42,20.50
2009,08,22,13,43,20.50
2009,08,22,13,44,20.40
2009,08,22,13,45,20.40
2009,08,22,13,46,20.40
2009,08,22,13,47,20.40
2009,08,22,13,48,20.40
2009,08,22,13,49,20.40
2009,08,22,13,50,20.40
2009,08,22,13,51,20.40
2009,08,22,13,52,20.50
2009,08,22,13,53,20.50
2009,08,22,13,54,20.40
2009,08,22,13,55,20.30
2009,08,22,13,56,20.30
2009,08,22,13,57,20.30
2009,08,22,13,58,20.30
2009,08,22,13,59,20.40
2009,08,22,14,00,20.40
2009,08,22,14,01,20.40
2009,08,22,14,02,20.40
2009,08,22,14,03,20.40
2009,08,22,14,04,20.50
2009,08,22,14,05,20.60
2009,08,22,14,06,20.80
2009,08,22,14,07,21.00
2009,08,22,14,08,21.10
2009,08,22,14,09,21.20
2009,08,22,14,10,21.30
2009,08,22,14,11,21.30
2009,08,22,14,12,21.30
2009,08,22,14,13,21.30
2009,08,22,14,14,21.30
2009,08,22,14,15,21.20
2009,08,22,14,16,21.10
2009,08,22,14,17,21.10
2009,08,22,14,18,21.20
2009,08,22,14,19,21.30
2009,08,22,14,20,21.30
2009,08,22,14,21,21.20
2009,08,22,14,22,21.20
2009,08,22,14,23,21.20
2009,08,22,14,24,21.20
2009,08,22,14,25,21.10
2009,08,22,14,26,21.00
2009,08,22,14,27,21.00
2009,08,22,14,28,20.80
2009,08,22,14,29,20.70
2009,08,22,14,30,20.80
2009,08,22,14,31,20.80
2009,08,22,14,32,20.80
2009,08,22,14,33,20.90
2009,08,22,14,34,20.80
2009,08,22,14,35,20.90
2009,08,22,14,36,20.90
2009,08,22,14,37,21.00
2009,08,22,14,38,21.00
2009,08,22,14,39,21.10
2009,08,22,14,40,21.20
2009,08,22,14,41,21.20
2009,08,22,14,42,21.30
2009,08,22,14,43,21.30
2009,08,22,14,44,21.30
2009,08,22,14,45,21.40
2009,08,22,14,46,21.50
2009,08,22,14,47,21.60
2009,08,22,14,48,21.60
2009,08,22,14,49,21.60
2009,08,22,14,50,21.60
2009,08,22,14,51,21.60
2009,08,22,14,52,21.60
2009,08,22,14,53,21.60
2009,08,22,14,54,21.60
2009,08,22,14,55,21.60
2009,08,22,14,56,21.60
2009,08,22,14,57,21.60
2009,08,22,14,58,21.60
2009,08,22,14,59,21.60
2009,08,22,15,00,21.60
2009,08,22,15,01,21.60
2009,08,22,15,02,21.60
2009,08,22,15,03,21.60
2009,08,22,15,04,21.60
2009,08,22,15,05,21.60
2009,08,22,15,06,21.60
2009,08,22,15,07,21.60
2009,08,22,15,08,21.50
2009,08,22,15,09,21.40
2009,08,22,15,10,21.40
2009,08,22,15,11,21.40
2009,08,22,15,12,21.40
2009,08,22,15,13,21.40
2009,08,22,15,14,21.40
2009,08,22,15,15,21.30
2009,08,22,15,16,21.30
2009,08,22,15,17,21.30
2009,08,22,15,18,21.10
2009,08,22,15,19,21.00
2009,08,22,15,20,20.90
2009,08,22,15,21,20.90
2009,08,22,15,22,21.00
2009,08,22,15,23,21.10
2009,08,22,15,24,21.30
2009,08,22,15,25,21.30
2009,08,22,15,26,21.40
2009,08,22,15,27,21.30
2009,08,22,15,28,21.30
2009,08,22,15,29,21.30
2009,08,22,15,30,21.30
2009,08,22,15,31,21.40
2009,08,22,15,32,21.40
2009,08,22,15,33,21.50
2009,08,22,15,34,21.60
2009,08,22,15,35,21.60
2009,08,22,15,36,21.70
2009,08,22,15,37,21.70
2009,08,22,15,38,21.70
2009,08,22,15,39,21.70
2009,08,22,15,40,21.70
2009,08,22,15,41,21.80
2009,08,22,15,42,21.90
2009,08,22,15,43,22.00
2009,08,22,15,44,22.00
2009,08,22,15,45,22.10
2009,08,22,15,46,22.10
2009,08,22,15,47,22.20
2009,08,22,15,48,22.20
2009,08,22,15,49,22.20
2009,08,22,15,50,22.10
2009,08,22,15,51,22.10
2009,08,22,15,52,22.00
2009,08,22,15,53,22.00
2009,08,22,15,54,22.00
2009,08,22,15,55,22.00
2009,08,22,15,56,22.00
2009,08,22,15,57,22.00
2009,08,22,15,58,21.90
2009,08,22,15,59,21.80
2009,08,22,16,00,21.80
2009,08,22,16,01,21.80
2009,08,22,16,02,21.80
2009,08,22,16,03,21.80
2009,08,22,16,04,21.80
2009,08,22,16,05,21.80
2009,08,22,16,06,21.80
2009,08,22,16,07,21.80
2009,08,22,16,08,21.80
2009,08,22,16,09,21.70
2009,08,22,16,10,21.70
2009,08,22,16,11,21.70
2009,08,22,16,12,21.60
2009,08,22,16,13,21.60
2009,08,22,16,14,21.60
2009,08,22,16,15,21.60
2009,08,22,16,16,21.60
2009,08,22,16,17,21.60
2009,08,22,16,18,21.60
2009,08,22,16,19,21.60
2009,08,22,16,20,21.70
2009,08,22,16,21,21.80
2009,08,22,16,22,21.80
2009,08,22,16,23,21.80
2009,08,22,16,24,21.80
2009,08,22,16,25,21.80
2009,08,22,16,26,21.90
2009,08,22,16,27,22.00
2009,08,22,16,28,22.10
2009,08,22,16,29,22.10
2009,08,22,16,30,22.20
2009,08,22,16,31,22.30
2009,08,22,16,32,22.40
2009,08,22,16,33,22.40
2009,08,22,16,34,22.50
2009,08,22,16,35,22.50
2009,08,22,16,36,22.60
2009,08,22,16,37,22.60
2009,08,22,16,38,22.60
2009,08,22,16,39,22.60
2009,08,22,16,40,22.60
2009,08,22,16,41,22.70
2009,08,22,16,42,22.70
2009,08,22,16,43,22.70
2009,08,22,16,44,22.70
2009,08,22,16,45,22.60
2009,08,22,16,46,22.60
2009,08,22,16,47,22.60
2009,08,22,16,48,22.60
2009,08,22,16,49,22.50
2009,08,22,16,50,22.50
2009,08,22,16,51,22.40
2009,08,22,16,52,22.30
2009,08,22,16,53,22.20
2009,08,22,16,54,22.20
2009,08,22,16,55,22.30
2009,08,22,16,56,22.30
2009,08,22,16,57,22.30
2009,08,22,16,58,22.40
2009,08,22,16,59,22.30
2009,08,22,17,00,22.40
2009,08,22,17,01,22.50
2009,08,22,17,02,22.50
2009,08,22,17,03,22.50
2009,08,22,17,04,22.60
2009,08,22,17,05,22.70
2009,08,22,17,06,22.80
2009,08,22,17,07,22.70
2009,08,22,17,08,22.60
2009,08,22,17,09,22.40
2009,08,22,17,10,22.30
2009,08,22,17,11,22.20
2009,08,22,17,12,22.10
2009,08,22,17,13,22.00
2009,08,22,17,14,22.00
2009,08,22,17,15,21.90
2009,08,22,17,16,22.00
2009,08,22,17,17,22.00
2009,08,22,17,18,22.00
2009,08,22,17,19,21.90
2009,08,22,17,20,21.90
2009,08,22,17,21,21.90
2009,08,22,17,22,21.80
2009,08,22,17,23,21.80
2009,08,22,17,24,21.60
2009,08,22,17,25,21.60
2009,08,22,17,26,21.60
2009,08,22,17,27,21.60
2009,08,22,17,28,21.60
2009,08,22,17,29,21.60
2009,08,22,17,30,21.70
2009,08,22,17,31,21.70
2009,08,22,17,32,21.70
2009,08,22,17,33,21.70
2009,08,22,17,34,21.70
2009,08,22,17,35,21.60
2009,08,22,17,36,21.50
2009,08,22,17,37,21.30
2009,08,22,17,38,21.30
2009,08,22,17,39,21.30
2009,08,22,17,40,21.20
2009,08,22,17,41,21.20
2009,08,22,17,42,21.20
2009,08,22,17,43,21.20
2009,08,22,17,44,21.30
2009,08,22,17,45,21.30
2009,08,22,17,46,21.30
2009,08,22,17,47,21.30
2009,08,22,17,48,21.30
2009,08,22,17,49,21.30
2009,08,22,17,50,21.30
2009,08,22,17,51,21.30
2009,08,22,17,52,21.20
2009,08,22,17,53,21.20
2009,08,22,17,54,21.20
2009,08,22,17,55,21.20
2009,08,22,17,56,21.20
2009,08,22,17,57,21.10
2009,08,22,17,58,21.10
2009,08,22,17,59,21.00
2009,08,22,18,00,21.00
2009,08,22,18,01,21.10
2009,08,22,18,02,21.10
2009,08,22,18,03,21.10
2009,08,22,18,04,21.10
2009,08,22,18,05,21.10
2009,08,22,18,06,21.10
2009,08,22,18,07,21.10
2009,08,22,18,08,21.00
2009,08,22,18,09,21.00
2009,08,22,18,10,21.00
2009,08,22,18,11,20.90
2009,08,22,18,12,20.90
2009,08,22,18,13,20.90
2009,08,22,18,14,20.90
2009,08,22,18,15,20.90
2009,08,22,18,16,20.90
2009,08,22,18,17,20.90
2009,08,22,18,18,20.90
2009,08,22,18,19,20.90
2009,08,22,18,20,20.90
2009,08,22,18,21,20.90
2009,08,22,18,22,20.90
2009,08,22,18,23,20.90
2009,08,22,18,24,20.90
2009,08,22,18,25,21.00
2009,08,22,18,26,21.00
2009,08,22,18,27,21.00
2009,08,22,18,28,21.00
2009,08,22,18,29,21.10
2009,08,22,18,30,21.10
2009,08,22,18,31,21.10
2009,08,22,18,32,21.10
2009,08,22,18,33,21.10
2009,08,22,18,34,21.10
2009,08,22,18,35,21.20
2009,08,22,18,36,21.20
2009,08,22,18,37,21.20
2009,08,22,18,38,21.20
2009,08,22,18,39,21.20
2009,08,22,18,40,21.20
2009,08,22,18,41,21.20
2009,08,22,18,42,21.30
2009,08,22,18,43,21.20
2009,08,22,18,44,21.30
2009,08,22,18,45,21.30
2009,08,22,18,46,21.20
2009,08,22,18,47,21.20
2009,08,22,18,48,21.20
2009,08,22,18,49,21.20
2009,08,22,18,50,21.20
2009,08,22,18,51,21.20
2009,08,22,18,52,21.20
2009,08,22,18,53,21.20
2009,08,22,18,54,21.20
2009,08,22,18,55,21.20
2009,08,22,18,56,21.20
2009,08,22,18,57,21.20
